DW6277 Weather Reports


Display with metric or nautical units.
time (UTC)temp
F
wind
direction
speed
MPH
gust
MPH
rain 1hr
in
rain 24hr
in
rain mn
in
humidity
%
barometer
mb
20260506202427 57 308 5.0 11.0 0.00 0.00 0.00 86 1012.8
20260506200317 57 304 5.0 12.0 0.00 0.00 0.00 87 1012.6
20260506194123 57 305 4.0 10.0 0.00 0.00 0.00 88 1012.6
20260506193059 57 331 2.0 6.0 0.00 0.00 0.00 89 1012.5
20260506190942 57 321 2.0 7.0 0.00 0.00 0.00 90 1012.6
20260506185916 58 281 2.0 6.0 0.00 0.00 0.00 90 1012.7
20260506184911 58 306 1.0 7.0 0.00 0.00 0.00 91 1012.8
20260506183905 58 274 2.0 7.0 0.00 0.00 0.00 91 1012.7
20260506182845 58 295 3.0 8.0 0.00 0.00 0.00 92 1012.7
20260506181846 58 314 3.0 9.0 0.00 0.00 0.00 92 1012.6
20260506180822 58 205 4.0 10.0 0.00 0.00 0.00 93 1012.6
20260506175801 59 317 4.0 10.0 0.00 0.00 0.00 94 1012.5
20260506173701 60 302 4.0 10.0 0.00 0.00 0.00 94 1012.5
20260506172641 60 321 3.0 10.0 0.00 0.00 0.00 95 1012.4
20260506171612 60 311 2.0 8.0 0.00 0.00 0.00 95 1012.4
20260506170550 60 319 1.0 5.0 0.00 0.00 0.00 95 1012.6
20260506165519 59 318 2.0 5.0 0.00 0.00 0.00 95 1012.5
20260506164532 59 295 1.0 4.0 0.00 0.00 0.00 94 1012.6
20260506163508 59 313 2.0 5.0 0.00 0.00 0.00 94 1012.7
20260506162519 59 301 2.0 5.0 0.00 0.00 0.00 94 1012.9
20260506161500 60 314 1.0 5.0 0.00 0.00 0.00 94 1012.9
20260506160525 60 292 2.0 5.0 0.00 0.00 0.00 94 1013.0
20260506155534 60 294 2.0 4.0 0.00 0.00 0.00 93 1013.0
20260506154556 61 328 2.0 5.0 0.00 0.00 0.00 93 1013.0
20260506153527 61 335 2.0 5.0 0.00 0.00 0.00 93 1013.0
20260506151439 61 317 1.0 4.0 0.00 0.00 0.00 92 1013.1
20260506150453 62 322 1.0 4.0 0.00 0.00 0.00 92 1013.2
20260506145424 62 318 2.0 4.0 0.00 0.00 0.00 92 1013.2
20260506140945 63 324 1.0 3.0 0.00 0.00 0.00 91 1013.6
20260506135956 63 316 1.0 3.0 0.00 0.00 0.00 91 1013.7
20260506135002 63 320 1.0 3.0 0.00 0.00 0.00 90 1013.7
20260506133929 64 309 1.0 3.0 0.00 0.00 0.00 90 1013.8
20260506132948 64 316 0.0 3.0 0.00 0.00 0.00 90 1013.7
20260506131939 64 302 0.0 1.0 0.00 0.00 0.00 90 1013.8
20260506130928 64 286 0.0 0.0 0.00 0.00 0.00 89 1013.9
20260506125928 64 283 0.0 0.0 0.00 0.00 0.00 89 1014.1
20260506124943 64 272 0.0 1.0 0.00 0.00 0.00 89 1014.2
20260506123958 64 264 0.0 0.0 0.00 0.00 0.00 89 1014.2
20260506122955 65 311 0.0 2.0 0.00 0.00 0.00 89 1014.4
20260506122001 64 274 0.0 0.0 0.00 0.00 0.00 89 1014.5
20260506120937 64 274 0.0 2.0 0.00 0.00 0.00 88 1014.7
20260506113636 65 266 0.0 0.0 0.00 0.00 0.00 86 1015.1
20260506112610 65 266 0.0 0.0 0.00 0.00 0.00 86 1015.2
20260506111603 65 266 0.0 0.0 0.00 0.00 0.00 86 1015.3
20260506110625 66 266 0.0 0.0 0.00 0.00 0.00 85 1015.4
20260506105601 66 266 0.0 2.0 0.00 0.00 0.00 85 1015.5
20260506104559 66 318 0.0 0.0 0.00 0.00 0.00 84 1015.6
20260506103621 66 318 0.0 0.0 0.00 0.00 0.00 84 1015.7
20260506102624 67 318 0.0 0.0 0.00 0.00 0.00 83 1015.7
20260506101617 67 318 0.0 2.0 0.00 0.00 0.00 83 1015.8
20260506100641 68 313 0.0 2.0 0.00 0.00 0.00 82 1015.7
20260506095618 68 91 0.0 0.0 0.00 0.00 0.00 82 1015.7
20260506093520 68 91 0.0 0.0 0.00 0.00 0.00 82 1015.7
20260506092526 69 91 0.0 0.0 0.00 0.00 0.00 82 1015.7
20260506091551 69 91 0.0 1.0 0.00 0.00 0.00 82 1015.6
20260506090527 69 91 0.0 0.0 0.00 0.00 0.00 82 1015.6
20260506085507 69 91 0.0 0.0 0.00 0.00 0.00 82 1015.7
20260506084503 69 91 0.0 1.0 0.00 0.00 0.00 82 1015.7
20260506083431 69 91 0.0 0.0 0.00 0.00 0.00 81 1015.7
20260506082401 69 91 0.0 1.0 0.00 0.00 0.00 81 1015.5
20260506081350 69 137 0.0 0.0 0.00 0.00 0.00 81 1015.6
20260506080341 69 126 0.0 4.0 0.00 0.00 0.00 81 1015.5
20260506072038 69 153 1.0 5.0 0.00 0.00 0.00 81 1015.4
20260506071045 69 135 2.0 5.0 0.00 0.00 0.00 80 1015.3
20260506060836 70 123 3.0 6.0 0.00 0.00 0.00 80 1015.4
20260506050818 70 178 4.0 7.0 0.00 0.00 0.00 81 1015.7
20260506044816 70 114 4.0 9.0 0.00 0.00 0.00 81 1015.8
20260506043752 70 158 4.0 9.0 0.00 0.00 0.00 81 1016.0
20260506042814 71 150 4.0 7.0 0.00 0.00 0.00 81 1016.0
20260506041831 71 191 4.0 8.0 0.00 0.00 0.00 81 1016.1
20260506040839 71 139 4.0 9.0 0.00 0.00 0.00 81 1016.2
20260506034701 71 137 4.0 10.0 0.00 0.00 0.00 80 1016.5
20260506033703 72 146 4.0 10.0 0.00 0.00 0.00 80 1016.6
20260506032636 71 179 4.0 10.0 0.00 0.00 0.00 80 1016.8
20260506031614 71 177 5.0 10.0 0.00 0.00 0.00 80 1017.0
20260506030633 71 152 5.0 9.0 0.00 0.00 0.00 79 1017.0
20260506025559 71 176 4.0 10.0 0.00 0.00 0.00 79 1017.1
20260506023409 71 168 4.0 8.0 0.00 0.00 0.00 78 1017.3
20260506022411 71 169 4.0 8.0 0.00 0.00 0.00 79 1017.6
20260506020206 70 167 5.0 8.0 0.00 0.00 0.00 77 1017.9
20260506015210 71 136 4.0 9.0 0.00 0.00 0.00 76 1018.1
20260506014227 71 148 4.0 9.0 0.00 0.00 0.00 76 1018.3
20260506013156 70 193 4.0 7.0 0.00 0.00 0.00 75 1018.5
20260506012210 70 132 4.0 9.0 0.00 0.00 0.00 75 1018.7
20260506011232 69 207 5.0 9.0 0.00 0.00 0.00 75 1018.9
20260506005148 69 153 3.0 7.0 0.00 0.00 0.00 75 1019.1
20260506004202 69 198 4.0 7.0 0.00 0.00 0.00 76 1019.2
20260506003139 69 150 3.0 6.0 0.00 0.00 0.00 75 1019.3
20260506002140 70 146 1.0 6.0 0.00 0.00 0.00 74 1019.4
20260506001110 70 143 1.0 4.0 0.00 0.00 0.00 74 1019.6
20260506000054 70 118 1.0 4.0 0.00 0.00 0.00 74 1019.7
20260505233951 69 146 2.0 4.0 0.00 0.00 0.00 76 1019.6
20260505232922 69 120 1.0 4.0 0.00 0.00 0.00 77 1019.6
20260505231921 68 260 0.0 4.0 0.00 0.00 0.00 77 1019.5
20260505230926 66 188 0.0 1.0 0.00 0.00 0.00 82 1019.6
20260505224817 62 284 1.0 4.0 0.00 0.00 0.00 87 1019.8
20260505222652 59 334 1.0 3.0 0.00 0.00 0.00 91 1019.8
20260505221634 58 313 1.0 4.0 0.00 0.00 0.00 92 1019.8
20260505220632 56 330 2.0 5.0 0.00 0.00 0.00 92 1019.7
20260505215602 55 314 2.0 5.0 0.00 0.00 0.00 92 1019.8
20260505214626 55 315 3.0 5.0 0.00 0.00 0.00 92 1019.8
20260505213638 55 305 2.0 5.0 0.00 0.00 0.00 92 1019.7
20260505211433 54 327 2.0 4.0 0.00 0.00 0.00 92 1019.6
20260505210403 54 325 2.0 5.0 0.00 0.00 0.00 92 1019.6
20260505205336 54 326 2.0 5.0 0.00 0.00 0.00 92 1019.5
20260505204323 54 324 2.0 5.0 0.00 0.00 0.00 92 1019.5
20260505203308 54 300 2.0 5.0 0.00 0.00 0.00 92 1019.4